Regional Weather Roundup
Issued by NWS

Home | Current Version | Previous Version | Text Only | Print | Product List | Glossary On
Versions: 1 2 3 4 5 6 7 8 9 10 11 12 13 14 15 16 17 18 19 20 21 22 23 24 25 26 27 28 29 30 31 32 33 34 35 36 37 38 39 40 41 42 43 44 45 46 47 48 49 50
000
ASUS45 KREV 131810
RWRNV
NEVADA REGIONAL WEATHER ROUNDUP
NATIONAL WEATHER SERVICE RENO NV
1100 AM PDT SUN JUL 13 2014

NOTE: "FAIR" INDICATES FEW OR NO CLOUDS BELOW 12,000 FEET WITH NO
SIGNIFICANT WEATHER AND/OR OBSTRUCTIONS TO VISIBILITY.

NVZ001-003-004-131900-
WESTERN NEVADA

CITY           SKY/WX    TMP DP  RH WIND       PRES   REMARKS
RENO           MOSUNNY   91  46  21 VRB5      30.17F
6HR MIN TEMP:  70; 6HR MAX TEMP:  91;

CARSON CITY    FAIR      86  43  22 S5        30.19F
SLIDE MTN        N/A     68  46  45 SE10        N/A
PYRAMID LAKE     N/A     82 N/A N/A NE3         N/A
FALLON         SUNNY     92  43  18 CALM      30.12F
6HR MIN TEMP:  64; 6HR MAX TEMP:  92;

LOVELOCK       SUNNY     94  43  17 VRB5      30.12F
6HR MIN TEMP:  63; 6HR MAX TEMP:  94;

HAWTHORNE      SUNNY     90  43  19 CALM      30.16F
$$

NVZ002-CAZ072-073-131900-
NORTHERN AND CENTRAL SIERRA

CITY           SKY/WX    TMP DP  RH WIND       PRES   REMARKS
S. LAKE TAHOE  SUNNY     80  49  33 NE8       30.31F
6HR MIN TEMP:  51; 6HR MAX TEMP:  80;

TRUCKEE        SUNNY     81  50  34 CALM      30.29S
SQUAW VLY 8000 NOT AVBL
SUSANVILLE     SUNNY     91  43  18 NE6       30.15F
BLUE CANYON    SUNNY     80  51  36 VRB5      30.26S
MAMMOTH LAKES  FAIR      84  25  11 E8        30.38S
BRIDGEPORT     FAIR      83  33  16 SW3       30.32F
$$

NVZ030-031-036-131900-
NORTHERN NEVADA

CITY           SKY/WX    TMP DP  RH WIND       PRES   REMARKS
ELKO           SUNNY     91  43  18 NE6       30.24F
6HR MIN TEMP:  57; 6HR MAX TEMP:  91;

WINNEMUCCA     NOT AVBL
$$

NVZ035-037-131900-
CENTRAL NEVADA

CITY           SKY/WX    TMP DP  RH WIND       PRES   REMARKS
ELY            NOT AVBL
EUREKA           N/A     89  44  20 N7        30.29F
6HR MIN TEMP:  58; 6HR MAX TEMP:  89;

$$

NVZ013-014-131900-
SOUTH CENTRAL NEVADA

CITY           SKY/WX    TMP DP  RH WIND       PRES   REMARKS
TONOPAH        SUNNY     90  22   8 CALM      30.25F
6HR MIN TEMP:  63; 6HR MAX TEMP:  90;

$$

NVZ017-020-022-131900-
SOUTHERN NEVADA

CITY           SKY/WX    TMP DP  RH WIND       PRES   REMARKS
LAS VEGAS      MOSUNNY  103  33   9 CALM      29.91F
6HR MIN TEMP:  85; 6HR MAX TEMP: 103;

N. LAS VEGAS   SUNNY    103  29   7 N5        29.94F
6HR MIN TEMP:  87; 6HR MAX TEMP: 103;

NELLIS AFB     SUNNY    105  36   9 NE12      29.91F
6HR MIN TEMP:  81; 6HR MAX TEMP: 105;

HENDERSON      SUNNY    102  37  10 VRB3      29.98F
6HR MIN TEMP:  81; 6HR MAX TEMP: 102;

MERCURY        SUNNY    102  25   6 N7        30.03F
6HR MIN TEMP:  72; 6HR MAX TEMP: 102;

$$


USA.gov is the U.S. government's official web portal to all federal, state and local government web resources and services.